Hourly Data Report for September 14, 2017

All times are specified in Local Standard Time (LST). Add 1 hour to adjust for Daylight Saving Time where and when it is observed.

RESOLUTE BAY A
NUNAVUT

74°43'01.000" N
94°58'10.000" W
67.70 m
2403498
71924
YRB

Download Data

Hourly Data (September 2017)
Hourly Data Report for September 14, 2017
Temp Definition
°C
Dew Point Temp Definition
°C
Rel Hum Definition
%
Wind Dir Definition
10's deg

Wind Spd Definition
km/h
Visibility Definition
km
Stn Press Definition
kPa
Hmdx Definition


Wind Chill Definition


Weather Definition


TIME
00:00 Legend Double Dagger -1.8 -2.5 95 13 16 9.7 100.67   -7 Snow
01:00 Legend Double Dagger -2.1 -2.7 96 12 15 9.7 100.66   -7 Snow
02:00 Legend Double Dagger -2.0 -2.7 95 12 13 9.7 100.68   -6 Snow
03:00 Legend Double Dagger -1.7 -2.4 95 12 11 24.1 100.71   -6 Snow
04:00 Legend Double Dagger -2.4 -3.3 93 10 6 24.1 100.72   -5 Snow
05:00 Legend Double Dagger -2.0 -2.8 95 7 8 24.1 100.72   -5 LegendNANA
06:00 Legend Double Dagger -2.0 -2.6 96 7 13 24.1 100.70   -6 Cloudy
07:00 Legend Double Dagger -1.7 -2.4 95 10 10 24.1 100.69   -5 LegendNANA
08:00 Legend Double Dagger -1.7 -2.5 94 10 17 24.1 100.70   -7 LegendNANA
09:00 Legend Double Dagger -1.3 -1.9 96 9 12 24.1 100.68   -5 Cloudy
10:00 Legend Double Dagger -1.1 -1.7 95 10 13 11.3 100.66   -5 LegendNANA
11:00 Legend Double Dagger -0.8 -1.9 92 13 11 24.1 100.65   -5 LegendNANA
12:00 Legend Double Dagger -1.1 -2.0 94 9 10 24.1 100.64   -5 Cloudy
13:00 Legend Double Dagger -0.7 -1.8 93 15 4 24.1 100.62   -2 LegendNANA
14:00 Legend Double Dagger -0.4 -1.5 93 12 12 24.1 100.59   -4 LegendNANA
15:00 Legend Double Dagger -0.5 -1.3 94 15 9 24.1 100.59   -4 Cloudy
16:00 Legend Double Dagger -0.3 -1.2 94 12 13 24.1 100.57   -4 LegendNANA
17:00 Legend Double Dagger -0.8 -1.3 96 15 11 24.1 100.54   -5 LegendNANA
18:00 Legend Double Dagger -1.3 -1.8 97 15 12 6.4 100.50   -5 Fog
19:00 Legend Double Dagger -1.4 -1.9 96 16 15 12.9 100.47   -6 Snow
20:00 Legend Double Dagger -1.5 -2.0 96 16 13 16.1 100.42   -6 Snow
21:00 Legend Double Dagger -2.0 -2.4 97 16 14 12.9 100.35   -7 Snow
22:00 Legend Double Dagger -1.7 -2.1 97 17 19 24.1 100.29   -7 Snow
23:00 Legend Double Dagger -1.9 -2.7 94 17 22 24.1 100.23   -8 Snow

Notes on Data Quality.

Legend

  • E = Estimated
  • M = Missing
  • NA = Not Available
  • ‡ = Partner data that is not subject to review by the National Climate Archives
Date modified: